Location: Newark
(40.2531°N, 0.7525°W)
Time: 10:41:58
(UTC+00:00)

AAUSAT CUBESAT 2 - Visible Passes

Search period start: 16 December 2019 00:00
Search period end: 26 December 2019 00:00
Orbit: 575 x 590 km, 97.5° (Epoch: 15 December)

Date Brightness Start Highest point End Pass type
(mag) Time Alt. Az. Time Alt. Az. Time Alt. Az.
16 Dec ? 06:39:45 10° N 06:43:56 85° WNW 06:48:06 10° SSW visible
16 Dec ? 17:28:26 10° SSE 17:32:26 54° ENE 17:36:29 10° N visible
16 Dec ? 19:06:44 10° WSW 19:08:09 11° W 19:09:35 10° WNW visible
17 Dec ? 06:45:32 10° N 06:49:42 73° WNW 06:53:51 10° SSW visible
17 Dec ? 17:34:07 10° SSE 17:38:10 64° ENE 17:42:17 10° N visible
18 Dec ? 05:19:07 10° E 05:19:41 10° E 05:20:14 10° E visible
18 Dec ? 17:39:49 10° SSE 17:43:55 75° ENE 17:48:04 10° N visible
19 Dec ? 05:23:49 10° ENE 05:25:29 12° E 05:27:10 10° ESE visible
19 Dec ? 17:45:33 10° SSE 17:49:40 88° ENE 17:53:51 10° NNW visible
20 Dec ? 05:29:03 10° ENE 05:31:19 14° E 05:33:34 10° SE visible
20 Dec ? 17:51:19 10° S 17:55:26 79° WSW 17:59:36 10° NNW visible
21 Dec ? 05:34:26 10° NE 05:37:08 17° E 05:39:48 10° SE visible
21 Dec ? 17:57:06 10° S 18:01:11 67° W 18:05:20 10° NNW visible
22 Dec ? 05:39:55 10° NE 05:42:56 19° E 05:45:56 10° SE visible
22 Dec ? 18:02:54 10° S 18:06:57 56° W 18:11:03 10° NNW visible
23 Dec ? 05:45:26 10° NE 05:48:44 22° E 05:52:00 10° SE visible
23 Dec ? 18:08:44 10° S 18:12:43 48° W 18:16:45 10° NNW visible
24 Dec ? 05:51:01 10° NE 05:54:31 26° E 05:58:00 10° SSE visible
24 Dec ? 18:14:35 10° S 18:18:29 40° W 18:22:26 10° NNW visible
25 Dec ? 05:56:37 10° NE 06:00:18 30° E 06:03:58 10° SSE visible
25 Dec ? 18:20:29 10° SSW 18:24:16 35° W 18:28:05 10° NNW visible
